Vertical_Velocity
-3 -3 -3 -1 -1 -1 -3 -2 -3 -2 -3 -2 -1 -4 -1 1 1 -4 -2 2 -6 10 3 16 -6 -1 -0 -17 1 -4 -6 -7 -4 -3 -3 0 -2 -1 -1 -4 -2 -3 -2
-2 -4 -3 -4 -4 -1 -0 -2 -2 -2 -1 -3 -1 -4 -3 -0 -0 -0 -1 -3 2 -0 16 -17 -9 7 -11 11 27 -0 -6 -1 -2 -1 3 1 1 2 3 -3 -6 -3 -1
-3 -3 -2 -2 -3 -5 -4 -1 -1 -2 -1 0 -4 -4 -2 -2 -1 1 -1 -1 -3 -1 2 12 13 4 8 -1 10 -13 5 10 -1 -1 1 5 3 -1 1 -4 -5 -1 -2
-2 -2 -2 -2 -1 -0 -2 -4 -2 -1 -2 -0 -2 -4 -2 -2 -3 1 0 -1 -3 -2 -9 0 -7 6 -5 -20 17 6 18 11 4 2 0 -2 2 3 -1 2 -3 -3 -4
-2 -1 -2 -2 -2 -1 -0 -1 -3 -3 -0 -1 -0 -2 -2 -2 -1 -1 -1 -0 -1 -2 -4 -5 -4 2 2 5 -7 8 -3 10 -12 20 -1 -4 -6 -9 -1 3 -1 3 -1
-1 -1 -1 -2 -2 -1 -1 -0 -1 -2 -1 -2 1 -3 -2 -2 -0 -2 -3 -4 -1 -2 -1 1 -12 28 2 8 -4 -5 4 -3 7 -1 -1 -5 1 -2 1 3 1 -3 -17
-1 0 -0 -1 -2 -0 -1 -1 -1 -0 -0 1 1 -3 -3 -3 -2 -2 -2 -7 -6 -5 -7 -5 -9 -6 19 -7 1 6 9 -5 -2 5 -6 -10 -2 -3 11 -1 -0 -4 -3
0 -1 1 -0 -2 -1 -1 -1 0 -2 -1 -1 0 -0 -1 -1 -4 -1 -0 -6 -7 -4 -5 -6 -3 -8 -11 32 31 -5 19 -1 -10 -13 2 5 -1 10 5 4 9 8 5
-0 -1 -1 -1 -2 0 0 1 2 0 -1 -1 -1 0 -2 -1 -2 -1 -1 -1 -4 -3 -2 -3 -2 -9 -9 -13 9 14 12 25 5 -7 8 1 1 9 0 1 -7 -2 -9
0 1 2 0 -1 -0 0 -0 1 -0 1 1 2 0 -2 -4 -1 -2 -2 -2 -4 -3 4 1 3 -3 -1 5 -2 24 7 -10 -10 -3 -4 -5 3 2 -3 -1 -2 -2 -1
2 1 -0 1 0 1 2 1 1 -0 0 -1 0 3 2 1 3 2 2 1 -1 -2 -7 -4 -5 3 -2 -5 11 -6 -25 11 1 -2 9 0 2 -2 -7 -3 -4 -2 3
-0 1 1 3 2 1 0 1 -0 -1 1 -1 -1 2 -0 1 1 3 4 0 0 -4 -3 -5 -5 -6 -5 -12 -11 -21 13 62 2 1 4 -3 -2 -4 -2 -0 5 2 -1
-0 -1 1 4 3 2 2 2 0 0 1 -1 1 3 3 4 4 4 -2 0 -1 -3 -1 -5 -4 -4 -1 -1 -3 2 14 1 -0 0 -8 -7 -2 10 -2 -3 10 1 -3
2 2 3 -0 0 3 2 4 3 1 0 0 2 1 2 2 1 -2 -1 2 2 -3 -1 -1 -7 2 -3 -6 -5 8 9 6 1 -8 -0 9 1 -7 -6 21 1 5 -2
1 3 -0 1 1 3 4 -2 0 3 -1 0 1 -1 -1 1 2 1 -1 -2 -1 0 -2 -1 -5 2 1 7 -7 6 -11 -4 18 2 37 -8 1 4 -3 -3 0 -10 7
-1 2 -5 0 0 1 2 4 1 -2 0 2 2 -0 0 -0 -1 2 3 5 6 6 7 4 10 7 4 3 15 -7 13 14 -6 -9 -9 2 -2 2 -0 -5 16 -1 -2
0 3 1 3 -0 1 2 2 3 3 -1 0 1 1 -0 -2 3 5 6 6 6 7 5 2 15 13 4 1 -12 11 -11 12 -12 -8 -1 7 7 9 5 18 -12 19 5
3 7 3 2 -0 2 1 1 3 1 2 4 3 1 5 3 -1 2 3 4 5 6 10 0 9 17 17 6 -6 -4 7 7 25 27 23 -6 3 3 8 6 1 16 1
-0 1 1 4 2 2 3 2 1 2 3 4 6 5 2 3 5 -0 1 0 2 4 6 9 1 15 18 7 -2 -2 3 -0 4 2 6 -19 29 10 36 23 10 27 2
2 1 1 1 2 1 1 1 3 1 1 0 0 -0 4 8 2 -2 -1 1 1 0 3 4 3 2 19 17 15 9 21 9 5 13 -5 3 13 18 8 18 4 9 8
0 1 1 2 1 -0 -0 1 -0 -0 -1 -0 1 -1 0 2 0 1 -0 1 1 2 1 4 6 5 -1 11 10 1 21 20 2 15 30 16 30 12 11 8 5 -10 5
1 -0 -2 -3 1 2 0 0 -0 -0 1 0 1 2 1 3 3 2 1 -1 0 1 1 -0 -0 5 6 1 4 12 10 3 0 12 35 17 3 5 12 5 6 6 -5
-0 1 1 2 1 0 3 0 1 -0 -1 -0 -0 -0 0 2 2 1 2 -0 1 2 1 0 -1 -2 -2 -1 -0 -6 4 7 5 9 6 0 -9 -7 1 5 2 1 0
-1 -1 -2 -1 -1 0 0 -0 -1 0 -1 -2 -1 1 1 -2 -3 2 3 3 -2 0 -1 1 1 2 1 -1 -1 -4 -4 -10 -4 -14 -9 -8 -3 1 9 0 -1 0 4
-1 -1 -1 -2 -2 -2 0 1 0 2 2 0 -1 -1 -1 1 2 -1 0 2 4 3 0 -0 2 -1 -1 3 4 1 1 -1 1 5 8 9 11 8 2 -3 -4 -2 -2
-0 -1 -0 1 1 0 -1 -1 -3 -2 -1 0 1 -0 -1 -1 -0 1 -0 -1 1 1 1 2 1 1 2 -0 -3 -1 1 2 5 4 1 1 2 2 0 2 4 -1 2
Height
2936 2932 2929 2927 2925 2922 2920 2919 2919 2920 2920 2921 2922 2922 2923 2926 2929 2932 2939 2948 2957 2965 2974 2981 2988 2999 3006 3012 3020 3026 3032 3040 3047 3056 3064 3069 3072 3076 3079 3084 3088 3092 3096
2930 2925 2921 2918 2916 2913 2911 2910 2909 2910 2910 2910 2910 2911 2912 2914 2917 2920 2924 2931 2940 2951 2957 2968 2976 2985 2996 3002 3007 3011 3022 3029 3037 3043 3052 3058 3062 3069 3072 3076 3081 3085 3088
2923 2918 2914 2910 2907 2904 2903 2901 2899 2899 2900 2900 2900 2900 2901 2902 2905 2908 2911 2916 2923 2931 2944 2951 2959 2969 2981 2991 2995 3001 3009 3018 3025 3032 3037 3046 3053 3058 3062 3067 3072 3077 3082
2916 2910 2905 2902 2898 2896 2894 2892 2890 2890 2890 2890 2890 2891 2891 2891 2893 2896 2899 2903 2909 2915 2924 2937 2946 2951 2966 2977 2982 2993 2996 3005 3011 3019 3024 3033 3041 3048 3052 3058 3063 3069 3074
2909 2903 2898 2893 2889 2886 2885 2883 2882 2881 2881 2881 2881 2882 2881 2881 2882 2884 2887 2890 2894 2900 2908 2919 2931 2938 2950 2961 2968 2979 2987 2992 3001 3007 3011 3020 3028 3035 3041 3050 3056 3061 3064
2902 2896 2891 2886 2882 2879 2876 2874 2873 2873 2872 2872 2873 2873 2874 2872 2871 2873 2875 2877 2881 2884 2892 2902 2916 2919 2931 2943 2954 2964 2974 2982 2987 2995 3001 3007 3017 3027 3034 3040 3047 3051 3054
2896 2890 2885 2880 2875 2872 2869 2866 2865 2864 2864 2864 2865 2865 2865 2863 2862 2863 2864 2865 2869 2873 2877 2885 2896 2906 2917 2927 2937 2951 2960 2970 2977 2986 2992 2998 3006 3015 3026 3031 3037 3042 3046
2892 2885 2880 2874 2869 2866 2862 2860 2858 2857 2857 2857 2857 2857 2855 2855 2854 2854 2855 2856 2858 2861 2867 2871 2878 2894 2904 2911 2919 2938 2946 2953 2964 2971 2981 2987 2997 3007 3016 3022 3028 3032 3034
2887 2881 2875 2870 2865 2860 2857 2854 2853 2851 2851 2851 2851 2850 2847 2847 2845 2846 2846 2846 2848 2850 2854 2859 2863 2875 2890 2901 2909 2921 2929 2941 2951 2962 2971 2978 2985 2993 3001 3010 3012 3017 3019
2883 2877 2871 2865 2860 2856 2852 2849 2848 2846 2846 2845 2845 2843 2842 2840 2839 2839 2839 2839 2839 2840 2842 2846 2852 2857 2876 2883 2892 2906 2919 2928 2940 2950 2957 2964 2972 2980 2988 2996 3001 3006 3010
2881 2874 2868 2862 2856 2852 2848 2846 2844 2843 2842 2841 2839 2838 2835 2834 2833 2834 2834 2833 2832 2832 2832 2834 2840 2845 2855 2870 2878 2892 2906 2921 2930 2939 2947 2955 2962 2968 2975 2982 2988 2994 2999
2878 2871 2865 2859 2854 2849 2845 2843 2841 2839 2838 2836 2835 2834 2832 2830 2828 2828 2828 2826 2826 2824 2824 2824 2828 2832 2838 2852 2866 2880 2895 2906 2917 2926 2935 2942 2949 2956 2964 2971 2978 2984 2990
2877 2870 2864 2858 2852 2847 2844 2841 2839 2837 2836 2834 2832 2830 2828 2826 2824 2823 2821 2820 2819 2818 2817 2816 2816 2820 2827 2839 2855 2866 2879 2892 2902 2912 2921 2929 2938 2947 2955 2961 2968 2974 2980
2877 2871 2864 2858 2853 2849 2844 2841 2838 2836 2834 2832 2830 2828 2825 2823 2820 2818 2816 2814 2812 2811 2811 2808 2806 2807 2815 2826 2844 2854 2865 2877 2888 2899 2909 2919 2927 2936 2942 2950 2956 2962 2968
2877 2872 2865 2859 2854 2849 2845 2841 2838 2836 2833 2830 2828 2825 2822 2819 2817 2814 2811 2809 2808 2806 2806 2803 2799 2800 2808 2818 2829 2842 2854 2864 2878 2888 2892 2905 2915 2923 2931 2938 2946 2951 2955
2878 2873 2867 2862 2856 2851 2846 2843 2839 2836 2833 2830 2827 2824 2821 2817 2814 2810 2807 2806 2805 2804 2802 2799 2794 2794 2801 2809 2820 2830 2842 2854 2866 2875 2885 2894 2903 2912 2921 2927 2933 2940 2946
2881 2875 2869 2865 2859 2853 2849 2844 2841 2838 2834 2831 2828 2825 2821 2818 2813 2810 2807 2805 2804 2802 2800 2798 2793 2790 2795 2802 2813 2824 2835 2846 2856 2865 2873 2883 2894 2903 2909 2912 2921 2927 2934
2883 2878 2872 2867 2862 2857 2853 2848 2844 2841 2837 2833 2831 2826 2823 2820 2816 2812 2810 2808 2805 2803 2800 2798 2795 2791 2792 2800 2808 2820 2828 2838 2847 2854 2864 2874 2884 2893 2900 2905 2908 2915 2923
2884 2879 2874 2870 2866 2861 2857 2852 2848 2844 2840 2836 2834 2830 2826 2823 2819 2816 2813 2810 2807 2804 2802 2799 2799 2796 2794 2799 2806 2815 2822 2832 2840 2846 2854 2863 2871 2879 2885 2890 2899 2903 2912
2886 2881 2876 2872 2868 2863 2859 2855 2851 2847 2843 2839 2836 2832 2829 2827 2824 2820 2817 2813 2810 2807 2804 2802 2800 2800 2799 2800 2804 2811 2816 2823 2828 2836 2844 2854 2859 2864 2873 2878 2886 2897 2902
2887 2882 2878 2873 2869 2865 2861 2857 2853 2849 2846 2842 2838 2835 2832 2829 2826 2823 2820 2817 2814 2811 2808 2806 2805 2804 2805 2806 2809 2814 2817 2821 2827 2834 2835 2843 2849 2858 2866 2873 2881 2889 2894
2889 2884 2879 2875 2871 2866 2862 2858 2855 2851 2848 2845 2842 2838 2834 2832 2829 2826 2823 2821 2817 2815 2813 2810 2809 2808 2808 2810 2813 2815 2818 2824 2830 2833 2834 2838 2846 2854 2862 2868 2874 2880 2886
2891 2887 2882 2877 2873 2869 2865 2860 2857 2853 2849 2846 2843 2840 2837 2834 2831 2829 2826 2824 2822 2819 2817 2815 2814 2813 2813 2814 2815 2818 2820 2824 2827 2829 2832 2838 2846 2854 2859 2864 2868 2873 2879
2893 2888 2884 2880 2875 2871 2867 2863 2859 2855 2851 2847 2844 2841 2838 2836 2834 2831 2828 2826 2825 2823 2821 2819 2818 2818 2818 2819 2820 2822 2824 2828 2829 2833 2836 2842 2848 2852 2855 2858 2863 2868 2873
2894 2890 2886 2882 2878 2873 2869 2865 2862 2858 2854 2850 2846 2842 2839 2837 2834 2833 2831 2830 2827 2825 2824 2823 2822 2822 2822 2822 2823 2824 2826 2829 2831 2834 2838 2841 2844 2847 2850 2855 2860 2865 2870
2896 2891 2887 2883 2879 2875 2871 2867 2863 2860 2856 2852 2848 2844 2840 2838 2835 2833 2832 2831 2830 2828 2827 2825 2824 2824 2824 2825 2826 2827 2828 2830 2832 2834 2837 2839 2842 2845 2849 2853 2857 2861 2866